Location: Ovac?k
(36.7911°N, 30.1833°E)
Time: 02:35:16
(UTC+00:00)

Daily predictions for brighter satellites

Satellite Brightness Start Highest point End
(mag) Time Altitude Azimuth Time Altitude Azimuth Time Altitude Azimuth
USA 267 3.6 00:41:36 10° NE 00:46:47 58° NNE 00:46:47 58° NNE
ARIANE 5 R/B 4.4 00:43:12 10° NNE 00:45:10 24° NNE 00:45:10 24° NNE
Cosmos 2360 Rocket 3.9 01:05:47 21° SE 01:08:01 27° ESE 01:12:43 10° NE
ADEOS II 4.3 01:03:24 10° N 01:04:24 15° NNW 01:04:24 15° NNW
IDEFIX/ARIANE 42P 3.5 01:07:00 10° NNE 01:10:25 42° NNE 01:10:25 42° NNE
Cosmos 1980 Rocket 4.0 01:20:38 20° NNW 01:20:38 20° NNW 01:22:57 10° N
Cosmos 44 Rocket 4.0 01:24:48 49° E 01:24:48 49° E 01:29:06 10° NE
Cosmos 2263 Rocket 2.2 01:20:38 10° NNW 01:26:19 81° ENE 01:32:00 10° SSE
Cosmos 2322 Rocket 2.1 01:26:32 79° SE 01:26:37 80° ESE 01:32:20 10° NNE
Meteor 1-27 Rocket 4.3 01:27:37 27° SSE 01:30:49 58° E 01:36:37 10° NNE
Cosmos 1707 Rocket 3.9 01:37:27 62° ENE 01:37:27 62° ENE 01:41:27 10° NNE
SL-16 R/B 2.2 01:38:10 66° NW 01:38:10 66° NW 01:43:35 10° NNE
Cosmos 1666 3.7 01:40:39 10° N 01:43:29 43° NNE 01:43:29 43° NNE
Cosmos 2237 4.5 01:42:44 35° S 01:45:05 66° ESE 01:50:45 10° NNE
COSMOS 2441 4.4 01:44:07 10° N 01:48:40 63° NW 01:48:40 63° NW
Cosmos 1536 3.5 01:51:54 10° N 01:55:54 55° E 01:59:52 10° SSE
Cosmos 1898 Rocket 3.4 01:51:03 10° NNW 01:56:20 89° WSW 02:01:38 10° SSE
Cosmos 2219 Rocket 4.4 01:52:16 10° SSE 01:56:43 24° E 02:01:11 10° NE
CZ-2C R/B 2.6 01:51:37 10° NNE 01:56:49 76° ESE 02:00:37 19° S
Cosmos 1733 Rocket 4.3 01:52:50 10° N 01:56:57 41° E 02:01:01 10° SSE
BREEZE-M DEB (TANK) 3.5 01:58:35 37° W 02:01:14 58° NNW 02:04:47 10° NE
SL-8 R/B 3.5 02:00:53 63° WSW 02:01:18 68° SW 02:06:02 10° SE
MSX 4.1 01:56:29 10° N 02:01:59 47° WNW 02:02:51 44° W
ALOS 4.1 01:58:37 10° NE 02:02:44 30° E 02:06:49 10° SSE
Landsat 5 3.5 02:03:18 10° S 02:07:47 68° WSW 02:12:15 10° NNW
IRIDIUM 104 4.4 02:02:48 10° NNW 02:07:52 54° W 02:10:04 32° SSW
Cosmos 1153 Rocket 4.4 02:05:21 10° NNW 02:11:38 64° W 02:17:49 10° S
Cosmos 1862 Rocket 3.6 02:07:40 11° S 02:11:49 75° E 02:16:10 10° N
Cosmos 1605 Rocket 4.4 02:06:04 10° NNW 02:11:56 39° W 02:14:28 28° SW
PSLV R/B 3.4 02:08:41 10° N 02:12:50 65° WNW 02:14:01 43° SW
Meteor 1-5 Rocket 4.5 02:08:12 10° NNW 02:13:10 40° W 02:14:14 36° WSW
Gbstr 26 Del rocket 4.3 02:06:55 10° NW 02:14:54 83° SW 02:21:54 10° SE
Cosmos 2208 Rocket 3.9 02:13:15 22° SSW 02:16:41 80° WNW 02:21:54 10° NNE
Cosmos 1937 Rocket 3.3 02:12:21 10° NNW 02:17:29 80° WSW 02:22:37 10° SSE
H-2A R/B 2.1 02:13:35 10° S 02:17:50 53° W 02:22:13 10° NNW
Cosmos 841 Rocket 3.5 02:16:20 31° SW 02:18:44 60° WNW 02:23:56 10° N
Cosmos 1000 Rocket 4.4 02:13:25 10° S 02:19:36 82° W 02:25:47 10° N
Cosmos 1814 Rocket 3.9 02:19:17 21° SSW 02:22:48 71° WNW 02:28:04 10° NNE
Cosmos 2333 Rocket 3.2 02:18:19 10° S 02:23:48 48° ESE 02:29:19 10° NE
USA 32 4.1 02:19:38 10° NNW 02:24:46 56° W 02:29:53 10° SSW
ERS-2 1.9 02:21:58 10° S 02:25:37 77° WSW 02:29:17 10° NNW
X-37B 0.5 02:27:32 42° NW 02:28:29 82° NNE 02:31:39 10° ESE
Cosmos 2322 3.9 02:24:01 10° SSW 02:29:38 71° ESE 02:35:16 10° NNE
SL-4 R/B 3.9 02:27:59 19° NW 02:29:39 22° NNW 02:33:24 10° NNE
NOSS 3-4 (A) 4.0 02:24:25 10° NNW 02:31:40 82° ENE 02:39:38 10° SSE
NOSS 3-4 (C) 4.0 02:24:32 10° NNW 02:31:46 81° ENE 02:39:44 10° SE
Cosmos 1743 3.4 02:28:17 10° N 02:32:03 56° E 02:35:47 10° SSE
ADEOS Rocket 3.1 02:30:21 10° S 02:37:13 77° WSW 02:43:24 10° NNW
Cosmos 1725 Rocket 4.3 02:36:48 10° N 02:42:59 70° E 02:49:07 10° SSE
Cosmos 1544 4.1 02:39:35 10° N 02:43:04 48° E 02:46:32 10° SSE
Cosmos 540 Rocket 4.1 02:40:43 20° WSW 02:43:32 35° WNW 02:48:15 10° N
DEBRIS 3.1 02:42:08 20° WNW 02:44:08 72° SW 02:52:01 10° SE
ADEOS 3.5 02:41:34 10° N 02:46:46 68° WNW 02:51:55 10° SSW
CZ-4B R/B 1.1 02:43:41 10° S 02:46:49 75° WSW 02:50:04 10° NNW
Cosmos 2333 4.2 02:41:56 10° SSW 02:47:43 80° WNW 02:53:31 10° NNE
Meteor 1-18 Rocket 4.4 02:42:25 10° S 02:47:56 77° E 02:53:30 10° NNE
Meteor 1-19 Rocket 4.5 02:43:30 10° S 02:48:55 72° E 02:54:29 10° NNE
COSMO-SKYMED 1 4.2 02:45:51 10° SE 02:49:51 38° ENE 02:53:52 10° N
Cosmos 2100 Rocket 4.2 02:45:01 10° NNW 02:51:08 50° W 02:57:11 10° SSW
Cosmos 2360 Rocket 2.8 02:47:37 15° WSW 02:51:48 37° WNW 02:57:02 10° N
Cosmos 1975 4.1 02:50:42 10° N 02:54:33 44° E 02:58:21 10° SSE
ATLAS 2AS CENTAUR R/B 2.7 02:48:05 10° NNW 02:55:27 85° WSW 03:02:09 10° SSE
FENGYUN 3A 3.6 02:51:51 10° N 02:57:14 72° WNW 03:02:36 10° SSW
Cosmos 1459 Rocket 4.2 02:52:31 10° NNW 02:58:15 46° W 03:03:57 10° SSW
Cosmos 1802 Rocket 4.1 02:53:59 10° NNW 03:00:03 57° W 03:06:11 10° SSW
SAR-Lupe-4 3.5 02:59:16 10° S 03:02:48 59° W 03:06:21 10° NNW
deb Chang Zheng 4 4.0 02:58:57 10° N 03:02:57 40° WNW 03:06:55 10° SW
USA 234 3.3 02:56:28 10° SE 03:02:58 71° SW 03:09:31 10° NW
Cosmos 2123 Rocket 4.1 03:01:02 10° SSW 03:07:07 56° W 03:13:18 10° N
Cosmos 1703 Rocket 3.4 03:03:37 10° SSW 03:07:55 75° W 03:12:16 10° N
Cosmos 2263 Rocket 3.8 03:07:44 10° W 03:09:26 11° W 03:11:07 10° WSW
Cosmos 1484 Rocket 3.3 03:06:07 10° N 03:09:51 39° WNW 03:13:35 10° SW
Cosmos 1908 Rocket 3.5 03:06:33 10° N 03:11:02 74° W 03:15:28 10° S
Cosmos 2322 Rocket 3.9 03:08:23 10° W 03:11:20 15° NW 03:14:27 10° NNW
Okean 1 3.9 03:08:38 10° SSW 03:12:23 36° W 03:16:09 10° N
Okean 1-7 2.9 03:09:14 10° SSW 03:13:28 71° W 03:17:42 10° N
Intercosmos 25 4.1 03:10:25 10° SW 03:14:04 28° W 03:16:59 10° NNW
Cosmos 1844 Rocket 2.7 03:09:19 10° NNW 03:14:52 61° WSW 03:20:25 10° S
SJ-12 3.9 03:11:32 10° N 03:15:39 75° WNW 03:19:46 10° SSW
Cosmos 1515 4.1 03:12:46 10° SSW 03:16:21 41° W 03:19:58 10° N
Hubble Space Telescope 3.2 03:16:57 10° SSW 03:19:22 15° SSE 03:21:47 10° SE
Cosmos 1844 3.6 03:14:40 10° NNW 03:20:11 68° WSW 03:25:41 10° S
Meteor 1-31 Rocket 3.5 03:18:52 10° N 03:22:20 33° WNW 03:25:49 10° SW
Spot 2 4.3 03:19:23 10° NNE 03:23:24 69° ESE 03:27:26 10° S
Cosmos 1437 Rocket 4.0 03:20:42 10° WSW 03:23:34 20° WNW 03:26:29 10° NNW
Meteor 2-9 Rocket 4.1 03:20:49 10° NNW 03:26:15 76° W 03:31:33 10° S
